"Pseudo-MPEC" for P10OVwh

Created 2019 Jun 17 13:07:50 UT using Find_Orb

Click here for an explanation of pseudo-MPECs

 
 Astrometry: 
     P10OVwh  C2019 06 10x6A.XB!MAstrometryISYuWY([fC3VYwK1y-PHvUFgv.EsdLy3YcF51
     P10OVwh  C2019 06 107lErXh_h!6:f5Gredacted;=]wL]dIclickFcB06uwpT:-F`%X(?F51
     P10OVwh  C2019 06 10G*Uapkbg(9:@$=@A9herePW4MMChZC(:0forY#nhe3,?6w=V?0`PF51
     P10OVwh  C2019 06 10E3XhUlexplanation17,gH?jpb.5uhB7bB'_:]XJwcI1A7@3#2tDF51

Station data:
(F51) Pan-STARRS 1, Haleakala  (N20.707235 W156.255910)  US/Hawaii.
   Observers N. Primak, A. Schultz, S. Watters, J. Thiel, T. Goggia. Measurer
   PS1 Science Consortium. 1.8-m Ritchey-Chrétien + CCD.

Orbital elements:  P10OVwh
   Perihelion 2019 Oct 29.456346 +/- 86.2 TT = 10:57:08 (JD 2458785.956346)
Epoch 2019 Jun 11.0 TT = JDT 2458645.5   Earth MOID: 0.0486   AutoNEOCP
M 230.29532454 +/- 110              (J2000 ecliptic)
n   0.92345186 +/- 0.451            Peri.  309.02307 +/- 80
a   1.04438318 +/- 0.34             Node    90.62624 +/- 55
e   0.1501208 +/- 0.266             Incl.   20.05318 +/- 24
P   1.07/389.83d           H 24.1   G  0.15   U 12.2  SR
q 0.88759950 +/- 0.352    Q 1.20116686 +/- 20.2
From 4 observations 2019 June 10 (50.3 min); mean residual 0".06
Residuals in arcseconds: 
190610 F51  .02-  .09+    190610 F51  .00   .04-    
190610 F51  .02+  .11-    190610 F51  .01-  .06+    

Ephemerides (geocentric):
Date (UTC) HH   RA              Dec         delta   r     elong  mag " sig PA
---- -- -- --  -------------   -----------  ------ ------ -----  --- ---- ---
2019 06 17 13  16 32 46.050   -00 56 34.49  .14461 1.1456 152.0 21.3  37d 171
2019 06 17 14  16 32 32.011   -01 00 52.81  .14453 1.1456 152.0 21.3  37d 171
2019 06 17 15  16 32 17.960   -01 05 11.49  .14445 1.1455 152.0 21.3  37d 171
2019 06 17 16  16 32 03.895   -01 09 30.55  .14437 1.1454 152.0 21.3  37d 171
2019 06 17 17  16 31 49.818   -01 13 49.97  .14429 1.1453 152.0 21.3  37d 171
2019 06 17 18  16 31 35.728   -01 18 09.76  .14421 1.1453 152.0 21.3  37d 171
2019 06 17 19  16 31 21.625   -01 22 29.92  .14413 1.1452 152.0 21.3  37d 171
2019 06 17 20  16 31 07.510   -01 26 50.43  .14405 1.1451 152.0 21.3  38d 171
2019 06 17 21  16 30 53.383   -01 31 11.31  .14397 1.1451 152.0 21.3  38d 171
2019 06 17 22  16 30 39.242   -01 35 32.55  .14389 1.1450 152.0 21.3  38d 171
2019 06 17 23  16 30 25.090   -01 39 54.15  .14381 1.1449 152.0 21.3  38d 171
2019 06 18 00  16 30 10.925   -01 44 16.10  .14373 1.1448 152.0 21.3  38d 171
2019 06 18 01  16 29 56.748   -01 48 38.41  .14365 1.1448 152.0 21.3  38d 171
2019 06 18 02  16 29 42.558   -01 53 01.06  .14358 1.1447 152.0 21.3  38d 171
2019 06 18 03  16 29 28.356   -01 57 24.08  .14350 1.1446 152.0 21.3  38d 171
2019 06 18 04  16 29 14.142   -02 01 47.44  .14343 1.1445 151.9 21.3  38d 171
2019 06 18 05  16 28 59.916   -02 06 11.14  .14335 1.1445 151.9 21.3  38d 171
2019 06 18 06  16 28 45.677   -02 10 35.20  .14327 1.1444 151.9 21.3  38d 171
2019 06 18 07  16 28 31.427   -02 14 59.60  .14320 1.1443 151.9 21.3  39d 171
2019 06 18 08  16 28 17.164   -02 19 24.34  .14313 1.1442 151.9 21.3  39d 171
2019 06 18 09  16 28 02.889   -02 23 49.42  .14305 1.1442 151.9 21.3  39d 171
2019 06 18 10  16 27 48.603   -02 28 14.84  .14298 1.1441 151.9 21.3  39d 171
2019 06 18 11  16 27 34.304   -02 32 40.60  .14291 1.1440 151.9 21.3  39d 171
2019 06 18 12  16 27 19.994   -02 37 06.69  .14283 1.1439 151.9 21.3  39d 171
2019 06 18 13  16 27 05.671   -02 41 33.12  .14276 1.1439 151.9 21.3  39d 171
2019 06 18 14  16 26 51.337   -02 45 59.88  .14269 1.1438 151.8 21.3  39d 171
2019 06 18 15  16 26 36.992   -02 50 26.97  .14262 1.1437 151.8 21.3  39d 171
2019 06 18 16  16 26 22.634   -02 54 54.39  .14255 1.1436 151.8 21.3  39d 171
2019 06 18 17  16 26 08.265   -02 59 22.13  .14248 1.1436 151.8 21.3  39d 171
2019 06 18 18  16 25 53.884   -03 03 50.20  .14241 1.1435 151.8 21.3  39d 171
2019 06 18 19  16 25 39.492   -03 08 18.59  .14234 1.1434 151.8 21.3  39d 171
2019 06 18 20  16 25 25.088   -03 12 47.30  .14227 1.1434 151.8 21.3  40d 171
2019 06 18 21  16 25 10.672   -03 17 16.33  .14221 1.1433 151.7 21.3  40d 171
2019 06 18 22  16 24 56.246   -03 21 45.67  .14214 1.1432 151.7 21.3  40d 172
2019 06 18 23  16 24 41.807   -03 26 15.33  .14207 1.1431 151.7 21.3  40d 172
2019 06 19 00  16 24 27.358   -03 30 45.31  .14200 1.1431 151.7 21.3  40d 172
2019 06 19 01  16 24 12.897   -03 35 15.59  .14194 1.1430 151.7 21.3  40d 172
2019 06 19 02  16 23 58.425   -03 39 46.18  .14187 1.1429 151.7 21.3  40d 172
2019 06 19 03  16 23 43.942   -03 44 17.08  .14181 1.1428 151.6 21.3  40d 172
2019 06 19 04  16 23 29.447   -03 48 48.29  .14174 1.1428 151.6 21.3  40d 172
2019 06 19 05  16 23 14.942   -03 53 19.80  .14168 1.1427 151.6 21.3  40d 172
2019 06 19 06  16 23 00.425   -03 57 51.60  .14162 1.1426 151.6 21.3  40d 172
2019 06 19 07  16 22 45.898   -04 02 23.71  .14155 1.1425 151.6 21.3  40d 172
2019 06 19 08  16 22 31.359   -04 06 56.12  .14149 1.1425 151.5 21.3  40d 172
2019 06 19 09  16 22 16.810   -04 11 28.81  .14143 1.1424 151.5 21.3  40d 172
2019 06 19 10  16 22 02.250   -04 16 01.81  .14137 1.1423 151.5 21.3  40d 172
2019 06 19 11  16 21 47.679   -04 20 35.09  .14130 1.1422 151.5 21.3  40d 172
2019 06 19 12  16 21 33.097   -04 25 08.66  .14124 1.1422 151.5 21.3  40d 172